Time,TemperatureF,DewpointF,PressureIn,WindDirection,WindDirectionDegrees,WindSpeedMPH,WindSpeedGustMPH,Humidity,HourlyPrecipIn,Conditions,Clouds,dailyrainin,SoftwareType,DateUTC
2013-04-15 00:09:00,38.1,36.0,29.67,NNE,26,1.0,7.0,93,0.13,,,0.50,weatherlink.com 1.10,2013-04-15 05:09:00,
2013-04-15 00:24:00,37.8,36.0,29.66,North,5,2.0,5.0,93,0.11,,,0.51,weatherlink.com 1.10,2013-04-15 05:24:00,
2013-04-15 00:39:00,38.0,37.0,29.66,NE,38,1.0,6.0,94,0.06,,,0.52,weatherlink.com 1.10,2013-04-15 05:39:00,
2013-04-15 00:54:00,37.9,36.0,29.64,ENE,61,4.0,8.0,94,0.03,,,0.53,weatherlink.com 1.10,2013-04-15 05:54:00,
2013-04-15 01:09:00,37.6,36.0,29.65,NNW,333,3.0,7.0,94,0.06,,,0.56,weatherlink.com 1.10,2013-04-15 06:09:00,
2013-04-15 01:24:00,37.4,36.0,29.65,ESE,112,5.0,8.0,95,0.06,,,0.57,weatherlink.com 1.10,2013-04-15 06:24:00,
2013-04-15 01:39:00,37.6,36.0,29.63,ESE,112,5.0,14.0,95,0.10,,,0.62,weatherlink.com 1.10,2013-04-15 06:39:00,
2013-04-15 01:54:00,37.6,36.0,29.62,East,86,7.0,13.0,95,0.11,,,0.65,weatherlink.com 1.10,2013-04-15 06:54:00,
2013-04-15 02:54:00,38.0,37.0,29.66,WNW,290,0.0,7.0,95,0.02,,,0.67,weatherlink.com 1.10,2013-04-15 07:54:00,
2013-04-15 03:09:00,37.9,37.0,29.68,WNW,284,1.0,7.0,95,0.01,,,0.68,weatherlink.com 1.10,2013-04-15 08:09:00,
2013-04-15 03:24:00,37.9,37.0,29.65,WNW,295,0.0,2.0,95,0.02,,,0.69,weatherlink.com 1.10,2013-04-15 08:24:00,
2013-04-15 03:39:00,37.8,37.0,29.67,WSW,248,3.0,4.0,95,0.02,,,0.69,weatherlink.com 1.10,2013-04-15 08:39:00,
2013-04-15 03:54:00,37.7,37.0,29.66,WSW,246,1.0,3.0,96,0.02,,,0.69,weatherlink.com 1.10,2013-04-15 08:54:00,
2013-04-15 04:09:00,37.7,37.0,29.66,WSW,246,0.0,2.0,96,0.01,,,0.69,weatherlink.com 1.10,2013-04-15 09:09:00,
2013-04-15 04:24:00,37.6,37.0,29.69,WSW,250,2.0,4.0,96,0.00,,,0.69,weatherlink.com 1.10,2013-04-15 09:24:00,
2013-04-15 04:39:00,37.7,37.0,29.68,WSW,238,0.0,4.0,96,0.00,,,0.69,weatherlink.com 1.10,2013-04-15 09:39:00,
2013-04-15 04:54:00,37.7,37.0,29.68,WSW,244,0.0,4.0,96,0.00,,,0.69,weatherlink.com 1.10,2013-04-15 09:54:00,
2013-04-15 05:09:00,37.7,37.0,29.67,SW,227,1.0,3.0,96,0.00,,,0.69,weatherlink.com 1.10,2013-04-15 10:09:00,
2013-04-15 05:24:00,37.8,37.0,29.68,SW,221,2.0,3.0,96,0.00,,,0.69,weatherlink.com 1.10,2013-04-15 10:24:00,
2013-04-15 05:39:00,38.0,37.0,29.68,SW,231,1.0,5.0,96,0.00,,,0.00,weatherlink.com 1.10,2013-04-15 10:39:00,
2013-04-15 06:09:00,37.3,36.0,29.67,SE,138,4.0,7.0,96,0.00,,,0.00,weatherlink.com 1.10,2013-04-15 11:09:00,
2013-04-15 06:24:00,36.8,36.0,29.67,South,181,3.0,8.0,96,0.00,,,0.00,weatherlink.com 1.10,2013-04-15 11:24:00,
2013-04-15 06:39:00,36.6,36.0,29.67,South,173,3.0,5.0,96,0.00,,,0.00,weatherlink.com 1.10,2013-04-15 11:39:00,
2013-04-15 06:54:00,36.4,35.0,29.67,SSE,158,4.0,5.0,96,0.00,,,0.00,weatherlink.com 1.10,2013-04-15 11:54:00,
2013-04-15 07:09:00,36.5,36.0,29.68,South,177,6.0,7.0,96,0.00,,,0.00,weatherlink.com 1.10,2013-04-15 12:09:00,
2013-04-15 07:24:00,36.5,36.0,29.68,South,186,5.0,6.0,96,0.00,,,0.00,weatherlink.com 1.10,2013-04-15 12:24:00,
2013-04-15 07:54:00,37.0,36.0,29.69,SSE,165,2.0,6.0,97,0.00,,,0.00,weatherlink.com 1.10,2013-04-15 12:54:00,
2013-04-15 08:09:00,37.5,37.0,29.69,SSE,167,1.0,7.0,97,0.00,,,0.00,weatherlink.com 1.10,2013-04-15 13:09:00,
2013-04-15 08:24:00,38.0,37.0,29.71,West,280,5.0,5.0,97,0.00,,,0.00,weatherlink.com 1.10,2013-04-15 13:24:00,
2013-04-15 08:39:00,38.2,38.0,29.71,North,360,2.0,7.0,97,0.00,,,0.00,weatherlink.com 1.10,2013-04-15 13:39:00,
2013-04-15 08:54:00,38.4,38.0,29.72,West,271,0.0,9.0,97,0.00,,,0.00,weatherlink.com 1.10,2013-04-15 13:54:00,
2013-04-15 09:09:00,39.0,38.0,29.71,SSW,198,8.0,12.0,97,0.00,,,0.00,weatherlink.com 1.10,2013-04-15 14:09:00,
2013-04-15 09:24:00,40.4,40.0,29.71,South,188,5.0,10.0,97,0.00,,,0.00,weatherlink.com 1.10,2013-04-15 14:24:00,
2013-04-15 09:39:00,41.2,40.0,29.71,SW,227,3.0,8.0,97,0.00,,,0.00,weatherlink.com 1.10,2013-04-15 14:39:00,
2013-04-15 09:54:00,41.2,40.0,29.71,SW,219,4.0,9.0,97,0.00,,,0.00,weatherlink.com 1.10,2013-04-15 14:54:00,
2013-04-15 10:09:00,42.0,41.0,29.71,SW,225,4.0,13.0,97,0.00,,,0.00,weatherlink.com 1.10,2013-04-15 15:09:00,
2013-04-15 10:24:00,43.8,42.0,29.71,SW,223,2.0,11.0,94,0.00,,,0.00,weatherlink.com 1.10,2013-04-15 15:24:00,
2013-04-15 10:40:00,45.6,42.0,29.71,SW,223,13.0,14.0,88,0.00,,,0.00,weatherlink.com 1.10,2013-04-15 15:40:00,
2013-04-15 10:55:00,46.5,42.0,29.71,SSW,206,4.0,10.0,84,0.00,,,0.00,weatherlink.com 1.10,2013-04-15 15:55:00,
2013-04-15 11:10:00,47.2,42.0,29.72,SSE,163,7.0,17.0,81,0.00,,,0.00,weatherlink.com 1.10,2013-04-15 16:10:00,
2013-04-15 11:25:00,49.4,41.0,29.72,SSW,207,7.0,28.0,72,0.00,,,0.00,weatherlink.com 1.10,2013-04-15 16:25:00,
2013-04-15 11:40:00,50.8,39.0,29.73,WSW,245,8.0,24.0,64,0.00,,,0.00,weatherlink.com 1.10,2013-04-15 16:40:00,
2013-04-15 11:55:00,51.5,38.0,29.73,WSW,257,7.0,23.0,61,0.00,,,0.00,weatherlink.com 1.10,2013-04-15 16:55:00,
2013-04-15 12:10:00,51.7,37.0,29.74,NNW,335,15.0,24.0,58,0.00,,,0.00,weatherlink.com 1.10,2013-04-15 17:10:00,
2013-04-15 12:25:00,51.7,36.0,29.75,WNW,300,6.0,28.0,56,0.00,,,0.00,weatherlink.com 1.10,2013-04-15 17:25:00,
2013-04-15 12:40:00,52.0,36.0,29.75,West,274,5.0,27.0,54,0.00,,,0.00,weatherlink.com 1.10,2013-04-15 17:40:00,
2013-04-15 12:55:00,52.1,33.0,29.76,South,178,17.0,26.0,49,0.00,,,0.00,weatherlink.com 1.10,2013-04-15 17:55:00,
2013-04-15 13:10:00,51.3,33.0,29.77,WSW,257,4.0,26.0,50,0.00,,,0.00,weatherlink.com 1.10,2013-04-15 18:10:00,
2013-04-15 13:25:00,52.5,33.0,29.76,WSW,246,9.0,20.0,47,0.00,,,0.00,weatherlink.com 1.10,2013-04-15 18:25:00,
2013-04-15 13:40:00,52.0,31.0,29.76,SW,235,7.0,24.0,45,0.00,,,0.00,weatherlink.com 1.10,2013-04-15 18:40:00,
2013-04-15 13:55:00,51.3,30.0,29.77,NE,43,13.0,27.0,44,0.00,,,0.00,weatherlink.com 1.10,2013-04-15 18:55:00,
2013-04-15 14:10:00,50.8,30.0,29.78,West,279,11.0,22.0,45,0.00,,,0.00,weatherlink.com 1.10,2013-04-15 19:10:00,
2013-04-15 14:25:00,50.7,30.0,29.78,NW,307,11.0,27.0,45,0.00,,,0.00,weatherlink.com 1.10,2013-04-15 19:25:00,
2013-04-15 14:40:00,51.4,31.0,29.79,West,263,11.0,22.0,46,0.00,,,0.00,weatherlink.com 1.10,2013-04-15 19:40:00,
2013-04-15 14:55:00,52.1,32.0,29.79,SW,223,16.0,17.0,46,0.00,,,0.00,weatherlink.com 1.10,2013-04-15 19:55:00,
2013-04-15 15:10:00,52.4,32.0,29.79,West,281,10.0,21.0,47,0.00,,,0.00,weatherlink.com 1.10,2013-04-15 20:10:00,
2013-04-15 15:25:00,51.8,32.0,29.79,SW,228,4.0,17.0,47,0.00,,,0.00,weatherlink.com 1.10,2013-04-15 20:25:00,
2013-04-15 15:40:00,51.9,32.0,29.80,WNW,285,16.0,21.0,47,0.00,,,0.00,weatherlink.com 1.10,2013-04-15 20:40:00,
2013-04-15 15:55:00,52.4,33.0,29.81,East,96,5.0,25.0,48,0.00,,,0.00,weatherlink.com 1.10,2013-04-15 20:55:00,
2013-04-15 16:25:00,49.7,31.0,29.81,WNW,296,9.0,27.0,49,0.00,,,0.00,weatherlink.com 1.10,2013-04-15 21:25:00,
2013-04-15 16:40:00,50.9,33.0,29.81,South,186,11.0,19.0,50,0.00,,,0.00,weatherlink.com 1.10,2013-04-15 21:40:00,
2013-04-15 16:55:00,50.5,32.0,29.81,NNE,19,16.0,24.0,50,0.00,,,0.00,weatherlink.com 1.10,2013-04-15 21:55:00,
2013-04-15 17:10:00,49.9,32.0,29.82,WNW,288,4.0,19.0,50,0.00,,,0.00,weatherlink.com 1.10,2013-04-15 22:10:00,
2013-04-15 17:25:00,49.2,32.0,29.82,West,279,8.0,24.0,51,0.00,,,0.00,weatherlink.com 1.10,2013-04-15 22:25:00,
2013-04-15 17:40:00,48.8,32.0,29.84,NW,309,10.0,23.0,52,0.00,,,0.00,weatherlink.com 1.10,2013-04-15 22:40:00,
2013-04-15 17:55:00,48.0,31.0,29.84,West,273,6.0,25.0,53,0.00,,,0.00,weatherlink.com 1.10,2013-04-15 22:55:00,
2013-04-15 18:10:00,47.6,31.0,29.84,NW,315,21.0,21.0,53,0.00,,,0.00,weatherlink.com 1.10,2013-04-15 23:10:00,
2013-04-15 18:25:00,46.5,31.0,29.85,South,174,3.0,15.0,55,0.00,,,0.00,weatherlink.com 1.10,2013-04-15 23:25:00,
2013-04-15 18:40:00,46.4,31.0,29.86,SSW,209,6.0,16.0,55,0.00,,,0.00,weatherlink.com 1.10,2013-04-15 23:40:00,
2013-04-15 18:55:00,45.6,31.0,29.85,WNW,296,12.0,17.0,56,0.00,,,0.00,weatherlink.com 1.10,2013-04-15 23:55:00,
2013-04-15 19:10:00,45.1,31.0,29.86,NNE,17,3.0,21.0,58,0.00,,,0.00,weatherlink.com 1.10,2013-04-16 00:10:00,
2013-04-15 19:25:00,44.6,31.0,29.86,SE,126,5.0,17.0,59,0.00,,,0.00,weatherlink.com 1.10,2013-04-16 00:25:00,
2013-04-15 19:40:00,43.9,31.0,29.86,NW,312,5.0,18.0,60,0.00,,,0.00,weatherlink.com 1.10,2013-04-16 00:40:00,
2013-04-15 19:55:00,43.4,31.0,29.86,NW,317,4.0,10.0,61,0.00,,,0.00,weatherlink.com 1.10,2013-04-16 00:55:00,
2013-04-15 20:10:00,43.0,31.0,29.87,WSW,256,4.0,12.0,63,0.00,,,0.00,weatherlink.com 1.10,2013-04-16 01:10:00,
2013-04-15 20:25:00,42.6,31.0,29.86,West,277,5.0,10.0,64,0.00,,,0.00,weatherlink.com 1.10,2013-04-16 01:25:00,
2013-04-15 20:40:00,42.1,31.0,29.87,West,273,6.0,9.0,65,0.00,,,0.00,weatherlink.com 1.10,2013-04-16 01:40:00,
2013-04-15 20:56:00,41.5,31.0,29.89,West,271,5.0,7.0,67,0.00,,,0.00,weatherlink.com 1.10,2013-04-16 01:56:00,
2013-04-15 21:11:00,41.6,31.0,29.89,WSW,256,1.0,10.0,67,0.00,,,0.00,weatherlink.com 1.10,2013-04-16 02:11:00,
2013-04-15 21:26:00,41.4,32.0,29.91,West,270,2.0,12.0,68,0.00,,,0.00,weatherlink.com 1.10,2013-04-16 02:26:00,
2013-04-15 21:41:00,40.9,31.0,29.91,NW,308,2.0,11.0,68,0.00,,,0.00,weatherlink.com 1.10,2013-04-16 02:41:00,
2013-04-15 21:56:00,40.4,31.0,29.91,West,271,4.0,9.0,70,0.00,,,0.00,weatherlink.com 1.10,2013-04-16 02:56:00,
2013-04-15 22:11:00,40.2,31.0,29.92,WNW,293,6.0,10.0,69,0.00,,,0.00,weatherlink.com 1.10,2013-04-16 03:11:00,
2013-04-15 22:26:00,39.6,31.0,29.93,West,265,7.0,7.0,71,0.00,,,0.00,weatherlink.com 1.10,2013-04-16 03:26:00,
2013-04-15 22:41:00,39.2,31.0,29.94,NNW,333,3.0,10.0,71,0.00,,,0.00,weatherlink.com 1.10,2013-04-16 03:41:00,
2013-04-15 22:56:00,39.0,30.0,29.93,West,262,7.0,15.0,71,0.00,,,0.00,weatherlink.com 1.10,2013-04-16 03:56:00,
2013-04-15 23:11:00,38.5,30.0,29.93,SW,221,1.0,8.0,72,0.00,,,0.00,weatherlink.com 1.10,2013-04-16 04:11:00,
2013-04-15 23:26:00,38.1,30.0,29.93,West,273,1.0,10.0,72,0.00,,,0.00,weatherlink.com 1.10,2013-04-16 04:26:00,
2013-04-15 23:56:00,37.2,29.0,29.95,WNW,298,2.0,6.0,73,0.00,,,0.00,weatherlink.com 1.10,2013-04-16 04:56:00,